TimeCDT,TemperatureF,Dew PointF,Humidity,Sea Level PressureIn,VisibilityMPH,Wind Direction,Wind SpeedMPH,Gust SpeedMPH,PrecipitationIn,Events,Conditions,WindDirDegrees,DateUTC
12:53 AM,55.0,37.0,51,29.89,10.0,SSE,12.7,-,N/A,,Mostly Cloudy,150,2013-03-10 06:53:00
1:53 AM,55.9,37.9,51,29.87,10.0,SSE,12.7,-,N/A,,Scattered Clouds,150,2013-03-10 07:53:00
3:53 AM,55.4,39.2,54,29.85,10.0,SSE,13.8,-,N/A,,Clear,150,2013-03-10 08:53:00
4:53 AM,57.9,41.0,53,29.83,10.0,SSE,16.1,25.3,N/A,,Clear,160,2013-03-10 09:53:00
5:53 AM,57.9,43.0,58,29.84,10.0,SSE,13.8,-,N/A,,Mostly Cloudy,160,2013-03-10 10:53:00
6:53 AM,57.2,44.6,63,29.83,10.0,SSE,13.8,21.9,N/A,,Overcast,160,2013-03-10 11:53:00
7:53 AM,57.9,45.0,62,29.82,10.0,SSE,19.6,27.6,N/A,,Scattered Clouds,160,2013-03-10 12:53:00
8:53 AM,59.0,46.0,62,29.80,10.0,SSE,18.4,-,N/A,,Scattered Clouds,150,2013-03-10 13:53:00
9:53 AM,60.1,46.0,60,29.79,10.0,SSE,23.0,28.8,N/A,,Clear,150,2013-03-10 14:53:00
10:53 AM,62.1,48.0,60,29.80,10.0,South,24.2,34.5,N/A,,Overcast,170,2013-03-10 15:53:00
11:53 AM,62.1,48.0,60,29.75,10.0,SSE,24.2,33.4,N/A,,Mostly Cloudy,150,2013-03-10 16:53:00
12:53 PM,63.0,48.0,58,29.74,10.0,SSE,23.0,33.4,N/A,,Overcast,160,2013-03-10 17:53:00
1:53 PM,61.0,51.1,70,29.70,5.0,South,26.5,34.5,0.01,Rain,Light Rain,170,2013-03-10 18:53:00
2:28 PM,57.2,53.6,88,29.72,4.0,SW,15.0,-,0.03,Rain,Rain,220,2013-03-10 19:28:00
2:35 PM,57.2,53.6,88,29.72,4.0,SW,17.3,24.2,0.04,Rain,Light Rain,220,2013-03-10 19:35:00
2:53 PM,52.0,48.0,86,29.73,9.0,NW,18.4,26.5,0.05,Rain,Light Rain,320,2013-03-10 19:53:00
3:02 PM,51.8,48.2,88,29.74,10.0,NW,11.5,24.2,0.00,,Overcast,310,2013-03-10 20:02:00
3:15 PM,51.8,48.2,88,29.75,8.0,NW,9.2,-,0.00,Rain,Light Rain,310,2013-03-10 20:15:00
3:53 PM,51.1,48.9,92,29.78,6.0,West,8.1,-,0.07,Rain,Light Rain,280,2013-03-10 20:53:00
4:53 PM,51.1,48.0,89,29.78,3.0,SE,4.6,-,0.04,Rain,Light Rain,130,2013-03-10 21:53:00
5:53 PM,51.1,48.9,92,29.75,10.0,SE,5.8,-,0.06,,Overcast,140,2013-03-10 22:53:00
6:53 PM,50.0,48.9,96,29.76,9.0,South,8.1,-,N/A,,Overcast,170,2013-03-10 23:53:00
7:07 PM,50.0,48.2,94,29.76,4.0,SSE,10.4,-,N/A,,Overcast,150,2013-03-11 00:07:00
7:17 PM,50.0,48.2,94,29.76,10.0,SSE,9.2,-,N/A,,Overcast,150,2013-03-11 00:17:00
7:33 PM,50.0,48.2,94,29.76,10.0,SSE,9.2,-,N/A,,Overcast,150,2013-03-11 00:33:00
7:53 PM,50.0,48.0,93,29.77,10.0,SSE,8.1,-,N/A,,Mostly Cloudy,160,2013-03-11 00:53:00
8:14 PM,50.0,48.2,94,29.77,10.0,South,9.2,-,N/A,,Mostly Cloudy,170,2013-03-11 01:14:00
8:53 PM,50.0,48.0,93,29.76,10.0,SSE,6.9,-,N/A,,Scattered Clouds,150,2013-03-11 01:53:00
9:44 PM,50.0,48.2,94,29.77,10.0,South,8.1,-,N/A,,Partly Cloudy,190,2013-03-11 02:44:00
9:53 PM,50.0,48.0,93,29.77,10.0,South,6.9,-,N/A,,Partly Cloudy,190,2013-03-11 02:53:00
10:16 PM,48.2,48.2,100,29.77,8.0,South,5.8,-,N/A,,Mostly Cloudy,190,2013-03-11 03:16:00
10:53 PM,51.1,48.9,92,29.76,10.0,South,11.5,-,N/A,,Overcast,190,2013-03-11 03:53:00
11:30 PM,48.2,46.4,93,29.78,2.5,WSW,12.7,-,0.02,Rain,Light Rain,250,2013-03-11 04:30:00
11:36 PM,48.2,46.4,93,29.78,3.0,WSW,12.7,-,0.02,Rain,Light Rain,250,2013-03-11 04:36:00
11:53 PM,48.9,46.0,90,29.78,10.0,WSW,8.1,-,0.02,,Overcast,240,2013-03-11 04:53:00
12:36 AM,48.2,44.6,87,29.77,10.0,SW,5.8,-,N/A,,Overcast,220,2013-03-11 05:36:00
12:53 AM,48.9,44.1,83,29.77,10.0,SW,9.2,-,N/A,,Overcast,230,2013-03-11 05:53:00